Location: Gilevgi
(36.8751°N, 30.0581°E)
Time: 21:31:21
(UTC+00:00)

YAOGAN 1 - Pass Details

Date: 11 December 2025
Orbit: 605 x 607 km, 97.8° (Epoch: 12 January)

Event Time Altitude Azimuth Distance (km) Brightness Sun altitude
Rises 15:15:47 0° 118° (ESE) 2,855 5.6 -6.6°
Reaches altitude 10° 15:19:13 10° 88° (E) 1,957 4.5 -7.3°
Maximum altitude 15:20:53 12° 65° (ENE) 1,822 4.3 -7.6°
Drops below altitude 10° 15:22:32 10° 42° (NE) 1,962 4.6 -7.9°
Sets 15:25:59 0° 12° (NNE) 2,871 5.6 -8.5°
